Preston, Minnesota, United States (55965)
Lat: 43.67N, Lon: 92.08W
Wx Zone: MNZ095
Local Info
Past Weather Observations for Friday, June 26, 2015

NOTE: This archive is for the closest National Weather Service station to Preston. Information may differ from the station used for current weather conditions.

Click here for Long-term Archive

Time Weather Temperature Dewpoint Humidity Pressure Winds Precip Visibility
23:54
Clear
63°F / 17°C 55°F / 13°C 77% 30.09 in
(1019 mb)
Calm - 10SM
23:34
Clear
63°F / 17°C 54°F / 12°C 73% 30.09 in
(1019 mb)
Calm - 10SM
23:14
Clear
61°F / 16°C 54°F / 12°C 77% 30.09 in
(1019 mb)
ENE 3.5 mph
(ENE 6 kph)
- 10SM
22:54
Clear
63°F / 17°C 54°F / 12°C 73% 30.09 in
(1019 mb)
Calm - 10SM
22:34
Clear
64°F / 18°C 54°F / 12°C 68% 30.09 in
(1019 mb)
Calm - 10SM
22:13
Clear
64°F / 18°C 55°F / 13°C 73% 30.09 in
(1019 mb)
Calm - 10SM
21:54
Clear
63°F / 17°C 55°F / 13°C 77% 30.09 in
(1019 mb)
Calm - 10SM
21:34
Clear
64°F / 18°C 55°F / 13°C 73% 30.09 in
(1019 mb)
NE 4.6 mph
(NE 7 kph)
- 10SM
21:14
Clear
64°F / 18°C 55°F / 13°C 73% 30.09 in
(1019 mb)
NE 3.5 mph
(NE 6 kph)
- 10SM
20:54
Clear
64°F / 18°C 55°F / 13°C 73% 30.09 in
(1019 mb)
NE 4.6 mph
(NE 7 kph)
- 10SM
20:34
Clear
64°F / 18°C 57°F / 14°C 78% 30.09 in
(1019 mb)
NNE 3.5 mph
(NNE 6 kph)
- 10SM
20:14
Clear
66°F / 19°C 57°F / 14°C 73% 30.09 in
(1019 mb)
NNE 3.5 mph
(NNE 6 kph)
- 10SM
19:54
Clear
66°F / 19°C 57°F / 14°C 73% 30.06 in
(1018 mb)
NE 4.6 mph
(NE 7 kph)
- 10SM
19:34
Clear
66°F / 19°C 57°F / 14°C 73% 30.06 in
(1018 mb)
NNE 4.6 mph
(NNE 7 kph)
- 10SM
19:14
Clear
68°F / 20°C 57°F / 14°C 69% 30.06 in
(1018 mb)
NNE 6.9 mph
(NNE 11 kph)
- 10SM
18:54
Clear
72°F / 22°C 57°F / 14°C 61% 30.06 in
(1018 mb)
NE 5.8 mph
(NE 9 kph)
- 10SM
18:34
Clear
72°F / 22°C 57°F / 14°C 61% 30.06 in
(1018 mb)
NNE 8.1 mph
(NNE 13 kph)
- 10SM
18:13
Clear
73°F / 23°C 57°F / 14°C 57% 30.06 in
(1018 mb)
NE 4.6 mph
(NE 7 kph)
- 10SM
17:54
Clear
73°F / 23°C 57°F / 14°C 57% 30.06 in
(1018 mb)
NE 8.1 mph
(NE 13 kph)
- 10SM
17:34
Clear
73°F / 23°C 57°F / 14°C 57% 30.06 in
(1018 mb)
NE 5.8 mph
(NE 9 kph)
- 10SM
17:14
Clear
73°F / 23°C 59°F / 15°C 61% 30.06 in
(1018 mb)
NE 6.9 mph
(NE 11 kph)
- 10SM
16:54
Clear
73°F / 23°C 59°F / 15°C 61% 30.06 in
(1018 mb)
NE 6.9 mph
(NE 11 kph)
- 10SM
16:33
Partly Cloudy
73°F / 23°C 59°F / 15°C 61% 30.06 in
(1018 mb)
NE 6.9 mph
(NE 11 kph)
- 10SM
16:14
Partly Cloudy
72°F / 22°C 57°F / 14°C 61% 30.06 in
(1018 mb)
NE 3.5 mph
(NE 6 kph)
- 10SM
15:54
Clear
73°F / 23°C 59°F / 15°C 61% 30.06 in
(1018 mb)
NE 5.8 mph
(NE 9 kph)
- 10SM
15:34
Partly Cloudy
73°F / 23°C 59°F / 15°C 61% 30.06 in
(1018 mb)
NE 5.8 mph
(NE 9 kph)
- 10SM
15:13
Clear
73°F / 23°C 57°F / 14°C 57% 30.06 in
(1018 mb)
NE 10.4 mph
(NE 17 kph)
- 10SM
14:54
Clear
73°F / 23°C 59°F / 15°C 61% 30.06 in
(1018 mb)
NE 11.5 mph
(NE 19 kph)
- 10SM
14:33
Clear
72°F / 22°C 59°F / 15°C 65% 30.06 in
(1018 mb)
NE 12.7 mph
(NE 20 kph)
- 10SM
14:13
Clear
72°F / 22°C 59°F / 15°C 65% 30.06 in
(1018 mb)
NNE 11.5 mph
(NNE 19 kph)
- 10SM
13:54
Partly Cloudy
73°F / 23°C 59°F / 15°C 61% 30.06 in
(1018 mb)
NE 10.4 mph
(NE 17 kph)
- 10SM
13:34
Partly Cloudy
73°F / 23°C 59°F / 15°C 61% 30.06 in
(1018 mb)
NE 8.1 mph
(NE 13 kph)
- 10SM
13:14
Mostly Cloudy
73°F / 23°C 59°F / 15°C 61% 30.06 in
(1018 mb)
NE 8.1 mph
(NE 13 kph)
- 10SM
12:54
Partly Cloudy
75°F / 24°C 59°F / 15°C 57% 30.06 in
(1018 mb)
NE 8.1 mph
(NE 13 kph)
- 10SM
12:34
Clear
73°F / 23°C 59°F / 15°C 61% 30.06 in
(1018 mb)
ENE 9.2 mph
(ENE 15 kph)
- 10SM
12:13
Clear
72°F / 22°C 59°F / 15°C 65% 30.09 in
(1019 mb)
NE 10.4 mph
(NE 17 kph)
- 10SM
11:54
Partly Cloudy
72°F / 22°C 61°F / 16°C 69% 30.09 in
(1019 mb)
ENE 8.1 mph
(ENE 13 kph)
- 10SM
11:34
Partly Cloudy
73°F / 23°C 63°F / 17°C 69% 30.09 in
(1019 mb)
NE 6.9 mph
(NE 11 kph)
- 10SM
11:14
Partly Cloudy
72°F / 22°C 61°F / 16°C 69% 30.09 in
(1019 mb)
ENE 5.8 mph
(ENE 9 kph)
- 10SM
10:53
Partly Cloudy
70°F / 21°C 61°F / 16°C 73% 30.09 in
(1019 mb)
ENE 6.9 mph
(ENE 11 kph)
- 10SM
10:34
Mostly Cloudy
70°F / 21°C 63°F / 17°C 78% 30.09 in
(1019 mb)
ENE 8.1 mph
(ENE 13 kph)
- 10SM
10:14
Mostly Cloudy
68°F / 20°C 61°F / 16°C 78% 30.09 in
(1019 mb)
ENE 4.6 mph
(ENE 7 kph)
- 10SM
09:53
Mostly Cloudy
68°F / 20°C 61°F / 16°C 78% 30.09 in
(1019 mb)
E 5.8 mph
(E 9 kph)
- 10SM
09:34
Partly Cloudy
68°F / 20°C 59°F / 15°C 73% 30.09 in
(1019 mb)
ENE 8.1 mph
(ENE 13 kph)
- 10SM
09:14
Mostly Cloudy
66°F / 19°C 59°F / 15°C 78% 30.09 in
(1019 mb)
E 5.8 mph
(E 9 kph)
- 10SM
08:54
Partly Cloudy
66°F / 19°C 59°F / 15°C 78% 30.09 in
(1019 mb)
ESE 5.8 mph
(ESE 9 kph)
- 10SM
08:34
Mostly Cloudy
66°F / 19°C 61°F / 16°C 83% 30.09 in
(1019 mb)
E 4.6 mph
(E 7 kph)
- 7SM
08:14
Mostly Cloudy
Hazy
64°F / 18°C 61°F / 16°C 88% 30.09 in
(1019 mb)
E 4.6 mph
(E 7 kph)
- 5SM
07:54
Partly Cloudy
64°F / 18°C 61°F / 16°C 88% 30.09 in
(1019 mb)
SE 6.9 mph
(SE 11 kph)
- 7SM
07:34
Partly Cloudy
63°F / 17°C 61°F / 16°C 94% 30.09 in
(1019 mb)
SE 4.6 mph
(SE 7 kph)
- 7SM
07:13
Clear
63°F / 17°C 59°F / 15°C 88% 30.09 in
(1019 mb)
ESE 4.6 mph
(ESE 7 kph)
- 7SM
06:54
Partly Cloudy
63°F / 17°C 59°F / 15°C 88% 30.06 in
(1018 mb)
ESE 5.8 mph
(ESE 9 kph)
- 7SM
06:33
Partly Cloudy
63°F / 17°C 59°F / 15°C 88% 30.06 in
(1018 mb)
E 6.9 mph
(E 11 kph)
- 7SM
06:14
Partly Cloudy
61°F / 16°C 59°F / 15°C 94% 30.06 in
(1018 mb)
E 4.6 mph
(E 7 kph)
- 7SM
05:54
Partly Cloudy
61°F / 16°C 59°F / 15°C 94% 30.09 in
(1019 mb)
ENE 3.5 mph
(ENE 6 kph)
- 7SM
05:34
Mostly Cloudy
Fog And Mist
61°F / 16°C 59°F / 15°C 94% 30.09 in
(1019 mb)
E 4.6 mph
(E 7 kph)
- 5SM
05:14
Partly Cloudy
61°F / 16°C 59°F / 15°C 94% 30.09 in
(1019 mb)
ENE 3.5 mph
(ENE 6 kph)
- 7SM
04:53
Clear
61°F / 16°C 59°F / 15°C 94% 30.06 in
(1018 mb)
NE 4.6 mph
(NE 7 kph)
- 7SM
04:34
Clear
Fog And Mist
61°F / 16°C 59°F / 15°C 94% 30.06 in
(1018 mb)
NE 4.6 mph
(NE 7 kph)
- 5SM
04:14
Clear
61°F / 16°C 59°F / 15°C 94% 30.06 in
(1018 mb)
Calm - 7SM
03:54
Clear
61°F / 16°C 59°F / 15°C 94% 30.06 in
(1018 mb)
Calm - 7SM
03:34
Clear
61°F / 16°C 59°F / 15°C 94% 30.04 in
(1017 mb)
NE 6.9 mph
(NE 11 kph)
- 7SM
03:13
Clear
Fog And Mist
61°F / 16°C 59°F / 15°C 94% 30.04 in
(1017 mb)
NE 3.5 mph
(NE 6 kph)
- 5SM
02:54
Clear
61°F / 16°C 59°F / 15°C 94% 30.04 in
(1017 mb)
E 3.5 mph
(E 6 kph)
- 7SM
02:34
Clear
61°F / 16°C 59°F / 15°C 94% 30.01 in
(1016 mb)
NNE 5.8 mph
(NNE 9 kph)
- 7SM
02:14
Clear
61°F / 16°C 59°F / 15°C 94% 30.01 in
(1016 mb)
NE 4.6 mph
(NE 7 kph)
- 7SM
01:54
Clear
61°F / 16°C 59°F / 15°C 94% 30.01 in
(1016 mb)
N 3.5 mph
(N 6 kph)
- 7SM
01:34
Clear
63°F / 17°C 59°F / 15°C 88% 30.01 in
(1016 mb)
Calm - 10SM
01:13
Clear
63°F / 17°C 59°F / 15°C 88% 30.01 in
(1016 mb)
Calm - 10SM
00:54
Clear
63°F / 17°C 59°F / 15°C 88% 30.01 in
(1016 mb)
Calm - 10SM
00:34
Clear
63°F / 17°C 59°F / 15°C 88% 30.04 in
(1017 mb)
NE 3.5 mph
(NE 6 kph)
- 10SM
00:14
Clear
63°F / 17°C 59°F / 15°C 88% 30.04 in
(1017 mb)
NE 3.5 mph
(NE 6 kph)
- 10SM
Time Weather Temperature Dewpoint Humidity Pressure Winds Precip Visibility


Weather for websites

WeatherForYou.com, LLC is not responsible for any damages or problems caused by this service. Current weather conditions are obtained from the closest station including government and personal stations which may have varying degrees of accuracy. Weather forecasts are derived from the NOAA NDFD. Like all things, this site belongs to Jesus Christ... He just trusts us to maintain it. If you have any questions or comments email webmaster@weatherforyou.com

Copyright © 2015, WeatherForYou.com LLC. All rights reserved.